Simultaneous Nadir Overpasses (SNOs) Predictions

Prediction of SNOs between METOP-A and TERRA Satellite Orbit:

Table of predicted SNOs for the next 14.0 days since TLE Epoch: 6/7/2014
Index Date (METOP-A) Time (METOP-A) Lat,Lon (METOP-A) SZA (METOP-A ) Date (TERRA) Time (TERRA) Lat,Lon (TERRA) SZA (TERRA ) Distance(km) Time Diff (sec)
1 06/07/2014 19:33:32 -81.28, 113.53 118.59 06/07/2014 19:33:59 -81.28, 113.41 118.59 1.95 27
2 06/07/2014 20:24:13 81.28, -78.99 61.43 06/07/2014 20:23:25 81.29, -78.80 61.43 3.31 48
3 06/10/2014 15:07:59 -81.28, 179.84 118.85 06/10/2014 15:08:14 -81.28, 179.86 118.84 0.32 15
4 06/10/2014 15:58:39 81.29, -12.32 61.22 06/10/2014 15:57:40 81.29, -12.39 61.18 1.21 59
5 06/13/2014 10:42:25 -81.28,-113.86 119.06 06/13/2014 10:42:28 -81.27,-113.79 119.05 1.12 3
6 06/13/2014 11:33:05 81.28, 53.95 61.01 06/13/2014 11:31:54 81.28, 53.92 60.96 0.86 71
7 06/16/2014 05:26:11 81.28, 145.26 60.81 06/16/2014 05:27:15 81.28, 145.19 60.84 1.34 64
8 06/16/2014 06:16:51 -81.28, -47.19 119.16 06/16/2014 06:16:42 -81.28, -47.18 119.17 0.25 9
9 06/19/2014 01:00:38 81.28,-148.51 60.70 06/19/2014 01:01:29 81.29,-148.33 60.75 3.25 51




NCC Satellite Simultaneous Nadir Overpasses (SNOs) Prediction Service
